Location: Peebles
(55.6412°N, 3.1714°W)
Time: 18:08:05
(UTC+01:00)

USA 238 DEB - Pass Details

Date: 28 January 2022
Orbit: 969 x 1243 km, 63.4° (Epoch: 04 May)

Event Time Altitude Azimuth Distance (km) Brightness Sun altitude
Rises 23:21:26 0° 310° (NW) 3,924 7.2 -50.4°
Reaches altitude 10° 23:24:06 10° 306° (NW) 3,002 6.4 -50.6°
Enters shadow 23:24:41 13° 305° (NW) 2,807 6.2 -50.6°
